Weather in Kolodezi

Russia / Rostov Oblast     49°09′23″N   40°26′33″E
temp.,
°C
wind,
m/s
gust,
m/s
humid.,
%
clouds,
%
prec.,
mm/h
press.,
hPa
HPBL,
m
19 september, sun
sun1900:00+12ese61247100 0.0 1016274
03:00+12ese61352100 0.0 1016314
06:00+12ese61450100 0.0 1015389
09:00+16se91547100 0.0 1014566
12:00+21se101248100 0.0 10131272
15:00+22sse91340100 0.0 10111688
18:00+21sse81247100 0.1 10111327
21:00+16se51167100 1.9 1011567
20 september, mon
mon2000:00+15se61389100 7.8 1009684
03:00+16sse5109499 14.1 1009526
06:00+16s599313 0.3 1009427
09:00+19s68703 3.3 1009561
12:00+23sw684694 2.1 10091929
15:00+22wsw7841100 2.1 10101641
18:00+19w47435 0.0 1011234
21:00+18ssw1146100 0.0 101226
21 september, tue
tue2100:00+17nw2350100 0.0 1012113
03:00+15sw1153100 0.0 101211
06:00+15w3557100 0.0 1013276
09:00+15wnw3452100 0.0 1013619
12:00+17sw564493 0.0 10131592
15:00+19wsw453827 0.0 10121862
18:00+17wsw354268 0.0 1012585
21:00+15nw4558100 0.0 1013463
22 september, wed
wed2200:00+13nw2364100 0.0 1014450
03:00+12wnw457660 0.0 1014405
06:00+10nw4576100 0.0 1015385
09:00+11wnw445530 0.0 1015728
12:00+14w334310 0.0 10151504
15:00+16w333848 0.0 10151876
18:00+13wnw555222 0.0 1016507
21:00+11nw256140 0.0 1016155
23 september, thu
thu2300:00+9nnw346666 0.0 1016119
03:00+9nne256776 0.0 1015153
06:00+9nne2269100 0.0 101584
09:00+12ne2258100 0.0 1014329
12:00+15sw2248100 0.0 10141151
15:00+16s2242100 0.0 10131528
18:00+15se2245100 0.0 101333
21:00+14ese3453100 0.0 1012227